Weather in Bugry

Russia / Saint-Petersburg and Leningrad Oblast     60°04′11″N   30°23′59″E
temp.,
°C
wind,
m/s
gust,
m/s
humid.,
%
clouds,
%
prec.,
mm/h
press.,
hPa
HPBL,
m
11 may, tue
tue1100:00+13s51580100 0.0 1022482
03:00+11s4148397 0.0 1023427
06:00+11s41382100 0.0 1023385
09:00+15s511648 0.0 1024551
12:00+20ssw68484 0.0 10241105
15:00+21ssw58425 0.0 10241406
18:00+21s47484 0.0 10241229
21:00+14sse38730 0.0 1024166
12 may, wed
wed1200:00+12sse25810 0.0 102582
03:00+10sse26840 0.0 1025105
06:00+10sse27815 0.0 1025167
09:00+16sse35540 0.0 1025394
12:00+21s35450 0.0 1024983
15:00+23s35430 0.0 10231461
18:00+23sse24480 0.0 10221547
21:00+16ene34756 0.0 102167
13 may, thu
thu1300:00+14ene388032 0.0 1020135
03:00+13e311860 0.0 1019243
06:00+14ese311874 0.0 1019509
09:00+16sse47565 0.0 1019836
12:00+19se46435 0.0 10181359
15:00+21ese58365 0.0 10162129
18:00+19ene485199 0.0 1014556
21:00+14se2281100 0.5 101428
14 may, fri
fri1400:00+12s2586100 0.0 101490
03:00+10sse228664 0.0 101516
06:00+10se268557 0.0 1014176
09:00+15se476298 0.0 1014633
12:00+19sse46449 0.0 10131496
15:00+21sse463630 0.0 10122104
18:00+21s364171 0.0 10112101
21:00+15se22645 0.0 101115
15 may, sat
sat1500:00+12ese22715 0.0 101027
03:00+13e2573100 0.0 1009117
06:00+14ese388698 0.0 1009273
09:00+18ese3570100 0.0 1007552
12:00+21se355670 0.0 10061483
15:00+18ene2380100 1.9 1007564
18:00
21:00+12w41094100 2.6 1006370